Theta_e
310 310 310 311 311 311 311 312 312 312 312 312 313 313 313 313 313 314 314 315 314 313 312 314 315 316 317 320 319 320 321 320 321 321 321 320 319 319 319 318 318 318 318 318 318
310 310 311 311 311 312 312 312 312 312 312 312 312 313 313 313 313 314 316 314 313 312 312 313 317 318 319 320 321 320 322 321 319 319 317 318 317 317 317 317 318 318 318 318 318
310 311 311 311 312 312 312 312 312 312 312 312 312 312 311 311 312 317 314 313 313 313 314 316 317 317 318 319 320 320 320 319 318 318 318 317 317 317 317 316 318 318 317 318 318
311 312 312 312 312 311 311 311 311 311 311 311 312 312 313 313 316 314 313 314 313 313 313 314 316 317 318 318 319 318 319 319 319 318 318 317 317 317 317 317 317 317 317 317 317
312 311 311 310 310 309 309 309 310 311 312 314 316 317 317 315 314 314 313 312 313 313 313 315 316 317 317 318 317 317 318 318 318 317 317 317 317 316 317 317 317 317 317 316 316
309 309 308 308 308 309 310 312 314 316 317 318 318 318 317 316 317 316 313 311 312 313 313 315 316 316 316 316 316 317 316 316 316 316 316 316 316 316 316 316 316 316 316 316 316
310 310 310 311 312 313 314 315 316 317 317 317 317 318 316 317 318 318 317 311 312 313 314 315 315 315 315 316 315 316 314 314 315 316 315 315 314 315 317 316 316 316 316 317 316
314 313 313 314 314 315 316 316 316 316 316 317 318 318 315 316 315 314 314 314 313 312 313 315 315 314 315 316 316 315 314 315 317 316 314 314 314 315 317 317 316 316 316 315 315
314 314 314 314 315 315 316 316 316 317 318 318 317 314 315 314 313 313 311 311 312 311 312 313 313 314 315 315 313 313 314 316 318 316 314 313 314 315 317 317 316 316 315 316 316
314 314 314 315 316 316 317 318 318 318 319 318 315 313 314 313 313 312 312 311 311 312 312 312 313 314 313 312 314 317 315 317 317 317 316 315 314 315 316 316 315 315 316 316 315
315 315 316 317 319 319 319 321 320 319 317 318 317 316 313 313 312 313 312 311 312 313 314 313 313 313 314 313 314 315 316 316 316 316 315 315 314 313 315 315 315 316 317 315 311
316 317 318 319 320 321 322 322 319 318 317 319 318 319 318 316 315 314 313 312 312 313 313 313 313 315 315 316 316 314 315 315 316 316 314 313 313 313 313 314 315 315 315 312 311
317 319 320 321 321 322 322 322 322 321 317 322 320 318 316 316 316 317 313 312 313 314 315 315 317 316 316 315 316 315 316 316 316 314 313 313 313 314 317 317 316 314 310 309 308
318 319 320 320 320 322 322 322 322 320 321 322 316 312 311 312 313 312 313 313 315 316 316 317 314 314 315 316 315 315 313 312 313 313 315 312 313 314 314 315 312 310 309 307 306
319 320 320 320 323 323 321 321 320 318 328 316 311 311 310 310 310 310 309 311 314 314 314 317 312 312 313 314 314 314 312 312 312 312 312 314 313 313 316 313 310 308 307 306 305
320 321 321 321 321 322 322 318 318 321 326 314 311 312 311 310 310 309 310 310 311 312 312 312 310 311 312 312 311 311 311 311 311 312 315 314 314 316 313 312 309 308 307 306 304
322 322 321 322 322 322 322 318 322 326 320 315 313 312 313 312 311 311 311 311 313 313 313 313 312 311 311 313 311 310 312 316 317 315 317 315 316 315 316 312 309 308 307 304 302
316 317 320 320 319 318 320 318 320 322 322 317 314 316 314 316 316 313 314 315 313 315 315 317 318 312 311 314 315 312 314 316 319 319 317 314 315 316 310 310 309 307 305 303 301
316 315 315 317 318 315 319 319 321 320 320 323 320 318 318 319 319 317 316 318 316 314 316 315 315 311 311 313 313 315 314 314 314 307 311 313 314 314 311 309 308 306 303 302 300
318 317 316 314 318 315 317 315 318 318 318 318 320 321 324 322 321 319 319 315 313 312 312 313 312 311 309 310 310 311 310 313 313 313 309 311 311 311 311 309 305 303 302 300 299
316 316 315 316 317 317 317 316 317 316 316 317 317 319 320 319 319 317 316 313 312 311 311 312 312 311 311 312 313 310 310 310 311 312 313 314 311 310 306 304 302 301 300 299 298
312 310 312 314 315 316 317 316 316 315 315 315 315 316 318 316 314 315 317 313 312 312 312 312 314 314 313 311 311 310 311 312 314 314 310 311 312 306 303 302 301 300 299 299 299
308 310 309 312 316 316 314 313 313 314 314 315 315 315 313 313 313 311 311 311 311 313 313 313 312 311 308 310 312 311 310 311 311 311 313 314 312 310 306 300 299 298 296 295 294
307 309 308 311 313 313 314 314 312 311 311 313 313 311 312 311 310 311 310 309 306 305 307 310 312 308 308 309 310 309 308 308 308 309 309 309 309 306 306 304 297 295 294 293 292
305 307 307 308 309 311 311 311 312 312 310 309 310 310 310 309 308 309 309 308 305 303 303 307 310 309 309 309 305 305 304 304 304 304 305 303 303 303 302 300 294 294 292 292 291
305 304 304 305 307 309 309 309 310 309 309 309 309 309 309 308 308 308 305 305 306 301 302 301 302 301 300 302 301 302 302 302 302 302 302 302 302 299 294 294 294 292 291 291 291
300 300 302 304 304 308 308 308 308 308 302 302 305 305 305 304 302 300 300 300 301 301 300 300 298 296 297 300 297 296 298 299 299 299 299 298 296 293 294 293 292 291 291 290 291
Wind_Speed
5 5 5 5 6 6 6 7 7 8 9 10 11 12 13 13 15 17 17 11 11 7 7 6 5 3 1 3 4 3 3 5 8 5 1 9 3 4 6 9 14 13 14 16 18
7 7 7 7 7 7 8 8 9 9 10 11 12 13 14 16 18 20 15 10 5 3 5 4 2 4 4 3 2 3 3 5 7 7 7 14 11 13 10 15 24 18 20 23 20
9 9 9 9 9 9 10 10 11 11 11 12 12 13 13 15 16 3 1 2 3 2 4 5 7 6 10 9 7 5 4 6 13 10 9 8 13 14 12 9 24 21 23 15 13
12 12 12 11 11 11 12 12 12 13 13 13 13 13 13 11 5 3 4 6 5 5 6 6 5 5 6 6 13 8 13 16 13 10 7 6 13 14 20 31 25 26 24 22 21
14 14 14 13 13 13 13 13 13 13 13 13 14 14 12 6 10 14 13 14 12 11 9 7 9 10 6 8 10 6 13 19 11 13 16 17 17 14 24 33 29 24 19 17 17
16 15 14 14 13 14 14 14 14 14 14 14 14 14 11 9 12 15 13 11 8 8 7 10 5 6 10 10 7 12 13 17 20 25 21 13 15 12 19 19 20 18 17 18 19
16 15 15 14 14 14 14 14 15 15 14 14 14 13 13 18 16 15 14 11 9 8 9 8 11 7 5 6 7 6 7 10 20 19 6 3 8 8 19 16 17 18 20 20 26
17 16 15 15 14 14 15 14 14 14 14 14 14 12 9 13 15 12 12 14 11 11 12 13 13 7 7 7 6 5 6 4 2 6 3 7 7 10 16 19 29 27 29 28 21
16 16 15 14 14 14 14 14 14 14 14 14 11 7 7 8 7 9 9 7 6 8 10 9 5 5 5 3 5 7 5 7 7 10 6 6 7 10 21 24 35 26 21 22 18
16 14 13 13 13 13 13 14 14 14 15 12 9 5 12 5 5 5 5 7 3 4 2 5 6 3 3 5 5 5 7 8 7 7 10 6 10 9 27 26 28 21 19 12 14
16 15 14 13 12 11 10 8 7 5 7 9 5 5 4 7 6 6 4 6 5 5 5 10 4 7 11 11 8 5 7 9 8 9 8 9 9 9 30 25 21 20 10 17 28
17 16 15 14 12 10 8 4 7 5 9 16 21 22 21 18 6 9 7 9 7 7 12 2 6 12 9 9 6 7 10 11 7 5 5 8 11 17 20 19 18 4 10 24 23
18 17 16 14 12 11 9 10 9 8 6 8 19 10 9 12 7 7 11 8 6 7 8 10 7 10 5 6 9 8 8 8 10 6 5 6 7 8 7 14 10 13 30 28 25
20 18 16 13 11 7 9 7 6 3 4 6 5 5 5 6 4 7 14 6 6 6 9 10 2 2 7 7 5 9 0 2 4 4 3 7 5 5 11 2 10 26 30 26 21
22 19 17 14 7 7 5 7 6 3 5 5 5 6 6 4 5 1 5 6 5 6 2 2 5 3 4 5 6 2 1 3 6 5 5 6 2 6 2 9 12 19 25 23 21
23 20 18 18 19 18 12 7 10 3 9 3 6 6 5 6 4 4 2 3 1 3 6 10 2 3 4 2 4 5 3 7 6 3 3 10 8 4 3 7 8 19 22 21 18
24 20 22 21 20 23 14 7 3 6 2 5 4 5 7 6 7 6 5 5 4 4 5 5 12 4 4 2 3 2 3 4 2 1 5 5 5 5 5 7 13 18 21 19 16
5 6 17 19 11 11 11 2 6 1 4 2 2 5 6 8 4 7 6 5 10 5 3 2 2 10 6 6 2 6 4 4 6 2 5 8 5 4 10 22 26 25 22 17 14
14 5 4 4 8 3 12 6 4 6 1 3 4 4 7 5 2 6 9 7 3 5 4 3 2 4 4 2 2 3 3 2 3 2 1 5 6 5 14 11 17 18 19 16 13
16 13 14 14 15 10 4 5 3 6 6 4 1 6 5 3 2 6 8 3 5 3 6 2 5 6 2 3 0 1 2 2 1 3 5 4 2 5 7 10 8 10 12 10 10
14 6 8 17 16 9 2 5 5 14 6 2 5 7 5 2 8 4 3 3 5 6 7 3 3 3 4 4 3 0 1 3 1 4 5 9 4 5 12 9 7 7 7 8 11
10 2 7 17 9 5 8 6 7 7 7 5 4 2 3 3 1 3 4 10 4 3 2 2 3 4 6 8 7 5 8 8 6 6 4 7 15 12 13 11 9 5 3 6 8
6 5 11 18 4 5 4 4 9 5 5 7 10 7 4 8 4 8 7 5 11 4 2 2 2 4 7 4 4 5 3 2 6 1 10 8 8 5 11 10 9 5 3 6 8
5 3 7 19 14 9 9 8 5 12 4 4 3 9 8 9 11 3 5 3 5 5 6 4 3 4 7 6 3 4 6 9 5 4 8 12 14 19 16 13 6 6 4 5 9
12 6 8 5 12 11 8 4 13 10 8 7 5 14 10 6 7 14 9 5 8 4 4 2 4 4 9 8 3 7 16 17 14 17 11 24 19 21 16 8 5 5 7 11 12
8 4 4 4 8 13 12 11 12 6 8 5 9 4 4 8 3 2 4 2 2 2 3 3 2 3 7 5 8 13 18 11 14 16 16 17 21 10 7 5 2 9 12 15 18
13 8 4 5 3 5 12 15 8 7 1 2 2 5 3 3 10 7 3 2 2 4 5 6 3 3 6 4 5 9 14 16 13 15 9 13 5 2 1 3 1 7 13 20 21
Wind_Direction
292 299 305 312 318 319 319 318 319 319 319 317 316 315 316 315 313 308 304 286 285 278 248 254 259 281 272 239 261 291 293 277 290 310 213 137 186 311 259 261 278 255 261 282 290
282 285 290 294 296 300 303 305 307 310 312 311 311 313 316 316 314 305 291 289 263 227 219 238 270 249 253 235 213 245 242 267 327 349 338 334 335 328 296 295 284 284 276 257 262
279 282 284 289 293 295 296 299 302 305 306 305 307 309 313 319 322 280 281 140 133 147 181 224 242 241 248 258 221 212 234 300 320 346 352 321 310 296 301 264 263 285 308 312 264
278 279 282 286 289 291 295 298 301 304 305 305 305 306 310 315 296 321 267 253 249 261 258 238 217 214 231 247 234 244 263 277 274 314 323 295 304 294 283 265 276 284 289 289 282
275 279 282 285 288 289 291 295 299 301 302 303 302 302 307 293 257 272 279 275 268 268 248 212 233 237 250 261 315 274 253 280 305 301 283 285 274 273 276 276 283 287 284 283 277
274 276 278 281 284 287 290 295 298 300 301 301 299 297 293 251 267 272 277 271 255 239 231 207 225 283 304 281 268 302 332 297 282 272 269 271 284 286 270 279 285 289 288 290 286
267 270 272 275 278 282 287 293 298 300 300 299 295 291 271 266 267 270 275 263 246 230 229 240 242 241 312 301 329 317 299 281 266 255 202 138 293 229 279 291 295 289 290 300 303
265 267 269 272 275 279 285 290 295 296 297 295 293 286 258 270 265 264 263 259 251 241 233 224 235 248 258 288 308 255 257 303 162 90 117 125 273 292 335 330 305 291 298 303 306
264 265 267 270 272 278 285 292 295 293 290 286 284 254 259 266 263 261 246 234 251 232 234 242 229 229 212 225 275 228 252 251 291 197 131 175 263 277 284 289 282 295 305 309 317
265 264 266 268 271 278 287 295 297 288 278 274 248 256 243 233 250 249 233 212 189 198 186 179 200 211 210 209 226 276 300 303 302 316 321 265 254 301 301 281 282 300 308 323 50
261 262 263 265 270 277 286 305 317 289 238 217 287 248 247 236 242 248 214 189 154 191 208 190 214 207 226 227 249 320 288 287 284 293 293 284 307 287 277 289 285 299 297 80 79
257 257 256 259 264 271 279 267 256 278 299 261 258 249 247 253 254 247 210 179 187 211 216 127 228 240 272 299 295 301 293 283 272 293 339 298 291 277 276 273 271 83 77 87 84
247 250 254 259 263 268 258 253 273 292 259 264 236 230 224 246 232 217 192 195 197 218 232 221 243 315 284 276 278 257 262 297 300 340 262 288 267 261 285 258 132 104 90 82 79
244 242 248 255 277 254 255 246 251 296 274 209 207 199 188 171 217 209 192 213 225 237 236 256 192 317 282 250 257 289 186 25 324 354 265 40 285 294 277 24 106 86 80 79 75
238 235 237 233 221 209 207 216 212 127 276 97 147 161 167 180 133 126 201 194 248 194 246 257 140 168 203 217 187 228 157 236 239 238 312 238 241 260 113 106 91 86 84 81 77
234 234 234 235 231 228 224 182 156 126 240 162 139 170 165 180 155 121 131 181 250 296 227 256 87 258 240 134 189 73 283 252 236 209 253 235 181 292 71 135 102 93 89 87 81
230 232 229 241 242 235 208 175 159 218 202 157 183 166 216 164 160 188 167 189 176 176 203 209 214 205 216 199 109 131 293 312 334 181 220 83 360 247 285 102 132 118 105 93 79
86 43 208 215 169 187 166 113 231 294 299 51 110 196 195 154 201 200 178 225 217 245 305 268 305 169 173 220 115 183 203 178 240 236 295 350 270 232 96 95 99 100 98 87 70
252 243 219 243 231 109 175 206 216 211 350 15 24 228 200 186 65 182 217 241 55 175 206 349 204 112 189 47 101 21 184 336 319 85 353 200 243 92 111 97 90 85 76 70 60
200 213 220 231 203 208 193 209 252 303 28 16 313 197 224 263 263 191 230 78 107 98 77 24 310 254 55 83 60 160 1 323 303 277 234 249 279 252 146 110 75 57 61 53 40
203 190 206 214 201 197 223 216 196 229 279 253 254 252 251 292 263 250 327 126 135 173 142 77 182 242 344 191 205 45 215 211 241 235 263 283 265 89 95 85 83 56 27 8 1
178 175 208 192 200 197 204 180 196 174 169 189 187 149 258 90 187 43 288 336 4 90 167 178 86 267 258 306 312 267 269 276 246 251 241 260 266 89 112 110 104 72 18 353 351
178 213 194 191 238 201 153 162 204 177 195 188 193 192 149 195 206 204 237 48 29 74 50 47 107 292 321 247 54 48 335 311 4 176 250 262 259 2 137 112 84 62 6 349 359
172 223 199 210 220 236 216 199 210 203 198 215 237 176 168 224 220 215 182 97 76 91 62 29 157 191 239 255 87 286 285 284 308 272 293 265 290 297 298 319 41 84 60 16 355
207 223 204 198 217 215 218 220 220 212 203 202 238 226 223 216 235 240 236 146 79 93 67 98 247 202 263 287 311 260 264 274 269 264 258 277 279 274 290 313 31 20 18 360 345
204 198 207 302 205 201 216 216 221 212 169 204 222 175 228 229 180 97 97 104 137 48 103 2 257 69 277 269 267 277 267 264 258 256 256 266 268 313 67 72 44 35 7 335 322
209 191 162 187 180 203 214 219 215 193 75 66 73 127 162 72 105 101 74 100 103 142 149 152 166 125 262 83 27 295 257 237 246 252 260 262 247 317 191 222 317 358 332 324 325